Home > Weather > Toulon > Past weeks

Flag for France Past Weather in Toulon, Provence-Alpes-Côte d'Azur, France — Yesterday and Last 2 Weeks

Now
68 °F

Sunny.


Feels Like: 68 °F
Forecast: 58 / 84 °F
Wind: 2 mph from North

Location: Hyeres Airport

Current Time: Jun 28, 2016 at 8:04:20 AM

Latest Report: Jun 28, 2016 at 7:30 AM


Visibility: 10 mi

Pressure: 30.04 "Hg

Humidity: 69%

Dew Point: 57 °F

Location of ToulonLocation

Past Weather in Toulon — Graph

°F

Toulon Temperature Yesterday

Maximum temperature yesterday: 86 °F (at 3:00 PM)
Minimum temperature yesterday: 63 °F (at 5:00 AM)
Average temperature yesterday: 75 °F

High & Low Weather Summary for the Past Weeks

 TemperatureHumidityPressure
High90 °F (Jun 25, 2:30 PM)94% (Jun 15, 12:30 PM)30.18 "Hg (Jun 15, 12:30 PM)
Low54 °F (Jun 18, 2:00 AM)27% (Jun 27, 2:30 AM)29.56 "Hg (Jun 14, 6:30 PM)
Average70 °F61%29.93 "Hg
* Reported Jun 13 7:00 AM — Jun 28 7:00 AM, Toulon, Weather by CustomWeather, © 2016

Note: Actual official high and low records may vary slightly from our data, if they occured in-between our weather recording intervals... More about our weather records

Advertising

Toulon Weather History for the Previous 24 Hours

Scroll right to see more
 ConditionsComfort  
Time TempWeatherWind HumidityBarometerVisibility
7:00 AM
Tue, Jun 28
63 °FSunny.3 mph77%30.04 "Hg10 mi
6:30 AM59 °FPassing clouds.3 mph77%30.04 "HgN/A
6:00 AM59 °FClear.3 mph77%30.01 "Hg10 mi
5:30 AM59 °FClear.2 mph77%30.01 "Hg10 mi
5:00 AM59 °FClear.No wind77%30.01 "Hg10 mi
4:30 AM59 °FClear.2 mph82%30.01 "Hg10 mi
4:00 AM61 °FClear.3 mph77%30.01 "Hg10 mi
3:30 AM61 °FClear.3 mph83%30.01 "Hg10 mi
3:00 AM61 °FClear.2 mph77%30.01 "Hg10 mi
2:30 AM64 °FClear.No wind68%30.01 "Hg10 mi
2:00 AM64 °FClear.No wind68%30.01 "Hg10 mi
1:30 AM64 °FClear.1 mph78%30.01 "Hg10 mi
1:00 AM66 °FClear.No wind73%30.01 "Hg10 mi
12:30 AM64 °FClear.No wind78%30.01 "Hg10 mi
12:00 AM66 °FClear.No wind73%30.01 "Hg10 mi
11:30 PM
Mon, Jun 27
66 °FClear.1 mph78%29.98 "Hg10 mi
11:00 PM68 °FClear.1 mph69%29.98 "Hg10 mi
10:30 PM70 °FClear.3 mph64%29.98 "Hg10 mi
10:00 PM70 °FSunny.No wind64%29.98 "Hg10 mi
9:30 PM70 °FSunny.2 mph64%29.98 "Hg10 mi
9:00 PM72 °FPassing clouds.5 mph61%29.95 "HgN/A
8:30 PM72 °FSunny.3 mph65%29.95 "Hg10 mi
8:00 PM75 °FSunny.7 mph54%29.95 "Hg10 mi
7:30 PM77 °FSunny.6 mph47%29.95 "Hg10 mi
7:00 PM81 °FSunny.3 mph42%29.95 "Hg10 mi
6:30 PM81 °FPassing clouds.8 mph42%29.95 "HgN/A
6:00 PM84 °FSunny.12 mph31%29.92 "Hg10 mi
5:30 PM81 °FPassing clouds.12 mph42%29.95 "HgN/A
5:00 PM82 °FPassing clouds.9 mph37%29.95 "HgN/A
4:30 PM84 °FPassing clouds.13 mph33%29.95 "HgN/A
4:00 PM86 °FPassing clouds.13 mph29%29.95 "HgN/A
3:30 PM84 °FPassing clouds.14 mph33%29.95 "HgN/A
3:00 PM86 °FSunny.15 mph31%29.92 "Hg10 mi
2:30 PM84 °FSunny.14 mph33%29.92 "Hg10 mi
2:00 PM84 °FSunny.15 mph33%29.95 "Hg10 mi
1:30 PM81 °FSunny.17 mph37%29.95 "Hg10 mi
1:00 PM82 °FSunny.15 mph35%29.95 "Hg10 mi
12:30 PM82 °FPassing clouds.13 mph40%29.95 "HgN/A
12:00 PM81 °FSunny.14 mph34%29.95 "Hg10 mi
11:30 AM79 °FPassing clouds.12 mph37%29.95 "HgN/A
11:00 AM81 °FPassing clouds.5 mph32%29.98 "HgN/A
10:30 AM77 °FPassing clouds.5 mph36%29.98 "HgN/A
10:00 AM75 °FSunny.8 mph47%29.98 "Hg10 mi
9:30 AM73 °FPassing clouds.10 mph44%29.98 "HgN/A
9:00 AM73 °FPassing clouds.7 mph38%29.98 "HgN/A
8:30 AM72 °FPassing clouds.8 mph47%29.98 "HgN/A
8:00 AM72 °FPassing clouds.5 mph41%29.98 "HgN/A
Weather by CustomWeather, © 2016

See weather overviewHow to use our weather pages